Theta_e
319 316 325 335 333 334 339 342 341 344 342 341 343 344 342 346 345 343 344 345 338 337 334 328 321 321 320 320 320 324 327 324 323 319 319 321 321 322 320 316 312 311 310 310 311 313 315 316 317
316 316 330 332 329 334 337 339 347 344 344 343 341 342 343 350 345 343 346 347 344 336 333 324 321 321 320 320 324 329 325 324 319 319 320 321 322 321 317 313 311 310 310 310 310 310 310 313 314
314 319 334 325 326 333 335 344 345 343 345 345 346 344 344 345 343 343 345 346 343 337 332 322 322 321 320 321 326 327 326 320 318 319 320 321 322 319 314 312 310 310 309 309 309 309 310 311 313
318 325 327 326 329 328 335 343 342 340 339 345 345 346 345 346 342 342 341 344 342 336 328 323 323 322 320 323 329 326 324 318 319 320 321 321 320 317 314 311 311 310 309 309 311 313 311 314 324
327 327 321 323 325 325 327 342 341 343 340 342 345 348 348 347 343 343 342 340 335 333 325 325 325 322 320 324 328 325 321 318 320 321 322 322 322 318 312 313 314 314 315 319 322 323 320 325 332
325 321 319 319 320 321 341 342 341 341 335 344 347 347 348 348 345 345 345 342 335 331 324 326 324 321 322 326 327 326 319 319 321 324 324 324 323 319 314 317 317 319 322 323 326 328 326 330 334
321 316 320 320 318 321 342 341 340 337 336 338 345 344 349 348 346 345 345 342 336 328 326 327 325 321 323 329 327 324 319 320 325 328 326 325 325 322 318 321 322 322 324 325 326 328 330 331 332
323 313 318 315 316 331 339 339 337 336 336 340 341 345 348 348 347 343 341 338 334 326 328 328 325 321 322 328 328 322 320 322 328 329 326 325 326 325 322 320 323 324 324 325 325 326 329 331 331
320 314 315 318 318 322 339 337 338 339 336 339 341 343 345 347 347 340 337 334 329 327 329 328 326 321 322 327 326 323 323 325 329 330 328 327 326 325 324 324 322 321 324 324 324 326 328 330 330
316 312 315 315 316 323 339 338 339 338 335 336 340 345 345 346 347 343 338 337 333 332 330 329 327 322 322 327 327 326 326 326 330 331 331 329 327 326 325 325 324 323 322 319 323 325 328 329 327
314 315 315 317 319 318 337 339 340 337 336 337 340 346 346 346 347 345 343 342 341 336 330 327 327 323 321 327 327 327 328 328 330 331 331 330 328 328 327 325 324 324 323 321 320 322 323 325 325
316 316 317 318 318 332 336 338 339 337 336 334 336 343 346 347 347 346 344 343 342 339 334 330 328 323 320 326 326 327 329 330 331 331 332 331 330 331 330 328 324 324 323 322 321 321 320 320 322
315 316 316 317 317 333 333 336 337 336 336 335 334 342 345 346 346 345 345 344 343 342 338 336 330 322 325 329 332 331 331 332 333 332 333 333 332 332 330 329 325 324 324 323 321 321 321 321 319
318 317 317 317 317 325 325 330 337 338 338 336 335 340 345 345 345 345 344 344 344 343 340 338 333 329 336 340 339 335 335 336 335 335 335 334 333 333 332 329 323 323 323 324 322 322 321 321 320
318 317 315 314 317 323 329 331 332 335 341 337 338 344 344 344 343 343 342 341 342 344 342 340 336 331 339 341 338 338 337 337 336 336 336 335 334 333 332 330 325 323 323 323 322 324 322 321 321
315 312 314 315 316 325 323 328 332 340 344 342 340 342 344 343 342 342 341 340 340 340 341 341 339 337 338 341 339 338 338 338 337 336 336 336 334 333 333 328 325 324 322 321 320 323 322 321 321
312 316 316 317 323 325 328 332 333 338 342 343 343 343 343 341 333 330 337 341 338 338 338 341 340 338 339 340 341 338 338 339 337 336 336 335 333 333 332 329 325 323 322 321 319 323 323 323 323
318 318 317 318 320 329 330 331 335 337 340 342 342 343 338 334 337 333 332 339 338 337 337 340 341 338 339 340 341 339 338 339 336 336 337 335 333 332 331 330 326 323 321 318 319 322 323 323 323
316 317 318 316 330 330 331 331 329 331 337 337 342 342 338 334 341 334 335 334 338 337 337 338 341 338 339 339 339 338 338 337 337 337 337 336 332 332 331 330 327 321 317 319 318 321 321 321 322
317 317 315 326 328 329 332 331 328 328 333 336 336 337 339 340 341 338 338 331 337 338 338 339 340 338 339 339 338 337 338 338 339 338 337 336 333 332 330 329 328 322 324 319 318 320 320 320 320
319 318 320 327 328 327 328 330 329 328 328 334 339 340 341 340 339 337 337 339 339 339 338 339 339 339 339 340 339 339 339 339 339 339 338 337 332 331 330 329 328 322 322 314 314 316 316 317 320
323 319 322 328 325 329 325 328 326 327 328 330 334 341 342 340 338 337 338 334 342 340 339 339 339 339 340 340 341 340 340 341 339 336 337 336 332 331 330 328 328 327 319 321 315 312 312 314 313
322 320 322 321 317 320 325 325 321 329 327 330 332 341 339 339 342 340 342 343 342 342 339 339 339 340 341 340 340 340 341 340 340 337 336 333 332 331 330 329 328 327 328 328 325 310 311 312 310
319 320 318 319 318 323 322 322 323 330 326 329 329 342 342 344 343 344 343 343 342 341 340 339 340 340 341 340 340 341 342 342 336 334 333 334 333 332 330 328 328 328 328 328 322 312 311 311 312
320 319 320 324 324 328 326 327 325 325 326 331 329 342 345 344 343 343 342 344 344 343 342 340 341 343 343 343 342 342 342 338 336 334 334 333 332 331 331 329 328 328 328 327 323 316 311 310 311
322 320 320 325 325 324 324 331 327 326 328 329 330 338 344 345 345 341 334 329 334 340 342 342 340 337 341 342 339 340 339 337 334 333 334 332 332 330 331 329 328 328 328 327 325 321 312 310 308
321 319 318 320 319 327 326 326 324 328 328 328 331 333 342 343 340 339 333 320 320 323 332 333 331 334 337 334 334 336 336 332 332 333 333 332 332 332 330 330 329 328 327 327 326 323 316 311 311
321 316 320 316 325 329 323 327 326 327 327 326 328 334 338 339 339 324 324 319 318 319 320 325 327 325 325 325 329 332 334 334 334 333 334 334 333 332 332 332 330 329 328 327 325 322 318 313 312
319 318 315 316 318 320 324 325 321 324 323 324 325 330 334 339 339 327 319 319 322 323 323 324 325 328 332 332 330 330 332 330 327 327 329 333 332 333 332 331 330 329 328 327 326 323 321 317 315
319 318 316 320 321 319 320 322 319 321 322 323 327 328 328 332 338 338 323 323 326 330 330 331 329 334 337 337 336 334 335 334 333 331 329 329 332 331 329 330 329 329 329 326 325 326 324 320 317
Wind_Speed
0 1 2 2 4 4 3 1 3 2 3 3 5 4 5 6 1 3 14 17 21 18 18 16 13 12 12 11 11 13 12 12 11 12 11 10 10 9 9 9 8 7 6 3 1 3 2 4 5
1 3 2 3 4 3 5 2 4 2 4 12 11 10 4 2 1 12 21 18 18 20 17 15 14 12 12 11 13 12 11 11 11 11 10 9 10 10 10 10 9 8 7 4 1 1 3 5 6
4 4 2 4 3 3 4 3 4 2 2 1 4 7 3 2 9 21 14 17 19 18 16 14 12 11 11 12 13 11 10 11 11 10 10 9 10 10 10 10 10 9 7 4 3 4 4 6 8
6 4 5 4 3 5 4 2 1 2 2 6 9 6 7 4 13 11 14 16 18 17 15 13 11 10 10 13 13 11 11 11 10 9 9 10 11 11 11 11 11 9 8 7 8 8 8 8 12
5 3 3 3 4 5 3 7 15 4 3 3 2 4 7 6 10 14 14 15 16 16 14 13 11 10 10 12 11 10 11 10 10 10 10 11 11 11 11 12 13 12 10 9 10 10 11 13 15
3 3 5 2 3 4 3 19 2 2 8 5 8 7 4 6 12 17 16 17 16 16 15 13 11 10 10 11 10 9 10 9 9 10 10 11 12 12 12 12 12 10 8 7 12 12 12 13 14
5 4 3 2 3 3 2 7 4 5 5 3 2 4 6 13 18 15 13 14 14 15 15 13 11 10 10 11 9 9 9 9 9 10 11 11 12 13 13 12 11 9 6 7 11 12 13 13 13
3 5 1 3 2 3 4 2 2 4 2 7 2 6 7 22 23 17 16 16 16 16 13 12 10 10 12 11 9 8 8 8 9 9 9 9 10 11 11 12 9 6 5 6 10 11 9 11 9
3 4 1 3 1 1 7 4 4 2 4 3 3 8 13 27 24 20 19 17 16 15 13 11 10 9 11 11 9 9 8 7 7 7 6 6 7 8 8 9 8 4 4 6 10 8 6 8 8
4 4 7 5 3 4 9 7 8 1 3 2 3 5 23 25 26 23 21 18 17 14 13 10 9 9 11 10 9 8 6 6 6 5 4 4 4 6 5 5 6 5 5 6 7 8 6 6 6
3 4 5 4 9 6 9 7 6 6 3 12 11 20 29 27 27 24 20 14 12 13 13 11 10 10 11 10 9 7 6 5 4 3 2 3 4 5 3 3 4 3 4 6 6 8 8 6 6
2 7 6 1 4 7 8 8 5 11 8 9 11 20 27 27 26 24 20 18 15 14 13 12 11 11 11 11 8 7 6 6 3 2 2 2 4 5 5 5 4 1 2 4 4 7 6 5 4
2 3 2 1 8 12 10 6 4 6 5 9 18 21 23 23 21 21 19 18 17 14 13 13 12 13 13 10 9 8 7 6 3 2 1 3 5 7 7 8 4 1 2 2 2 4 6 7 6
3 7 7 4 7 13 7 4 8 11 9 13 22 23 18 17 17 16 19 20 18 17 15 14 13 15 15 12 9 8 8 7 4 2 3 5 7 9 9 8 3 2 3 4 3 1 0 4 8
5 5 1 4 7 5 11 3 1 7 17 20 25 23 15 12 12 12 13 17 15 18 15 16 15 18 16 12 11 11 10 9 7 6 5 6 7 9 10 9 7 4 3 5 4 6 5 3 2
4 5 4 4 4 4 8 3 8 12 17 21 27 25 21 14 10 9 9 11 15 16 19 19 18 17 17 15 12 13 12 12 10 8 7 9 9 9 12 10 8 7 6 7 9 8 8 8 6
6 3 3 7 5 1 4 1 1 6 10 16 24 24 20 14 10 13 16 15 14 16 17 22 22 18 17 17 16 15 16 14 12 11 9 10 11 12 11 9 9 8 9 9 7 10 10 10 12
2 2 0 1 4 7 5 2 2 3 10 14 19 22 18 13 7 8 12 15 13 13 14 20 23 19 19 19 17 20 18 17 15 14 12 13 12 13 11 10 8 8 10 10 9 8 11 8 11
4 3 3 3 2 6 4 4 3 2 7 13 19 26 25 19 19 14 10 16 15 12 14 20 24 20 18 12 13 15 17 16 17 16 15 13 13 12 12 9 8 7 8 13 11 10 10 10 11
5 4 5 3 2 6 2 4 4 3 6 9 16 24 29 27 23 17 12 11 13 13 15 18 22 20 17 15 12 11 16 18 18 17 15 14 14 13 11 8 8 10 12 9 10 12 13 14 14
3 6 5 7 6 8 7 6 4 4 7 7 11 17 19 18 17 17 14 9 14 16 17 19 22 17 14 17 9 12 10 13 14 15 15 16 15 14 12 11 10 10 8 9 11 11 11 15 16
1 5 6 9 4 5 2 3 6 5 7 7 17 17 12 8 11 13 17 13 15 17 16 20 19 17 16 16 14 13 13 13 13 13 15 14 14 14 13 12 12 12 9 8 9 11 10 12 14
3 5 5 4 5 4 1 3 4 3 7 8 19 19 14 9 9 8 8 8 10 12 15 19 20 20 17 16 17 16 15 16 16 16 13 13 14 14 13 15 16 15 14 13 12 11 11 11 12
8 7 9 6 4 2 2 4 3 6 9 8 15 18 17 13 10 9 10 10 9 10 14 18 19 16 16 17 17 17 17 16 14 11 11 13 13 13 12 14 17 17 17 15 12 13 13 13 13
6 7 3 3 4 4 0 2 7 5 6 15 19 22 18 15 12 11 11 12 14 15 17 20 19 16 17 17 17 17 16 15 13 10 11 12 11 11 11 13 17 19 19 17 15 15 15 14 14
3 6 6 5 3 3 4 3 3 5 7 11 17 21 19 19 18 15 11 12 15 16 17 17 15 15 16 17 16 16 15 14 12 10 11 10 10 9 9 12 15 18 19 18 17 16 16 15 14
4 3 5 7 3 2 2 5 5 3 4 8 12 20 24 22 19 17 16 15 14 15 17 14 15 15 15 16 15 14 14 13 12 13 13 11 11 10 9 10 13 16 18 19 18 17 15 16 14
4 5 4 3 4 3 4 3 4 2 7 7 10 24 26 22 21 20 20 20 17 15 13 15 16 12 10 9 10 11 10 10 14 18 18 15 14 13 13 13 13 13 15 16 17 16 16 18 16
2 3 7 5 4 5 1 5 6 5 5 8 14 18 25 27 27 24 22 21 19 16 15 16 16 11 9 6 8 11 10 8 13 16 19 19 17 15 15 15 16 17 17 16 17 17 17 19 18
3 4 4 5 3 2 4 5 2 3 9 8 14 14 16 23 29 27 25 23 22 20 18 15 15 14 10 9 12 14 15 16 18 18 16 18 19 19 20 17 20 19 19 18 17 18 19 20 21
Wind_Direction
130 39 68 38 50 55 325 44 279 313 41 8 139 151 149 70 138 203 146 147 162 167 164 157 156 156 152 147 138 130 124 118 115 112 105 95 83 69 59 56 53 54 56 61 162 217 176 182 179
137 139 100 87 74 49 283 206 240 354 99 99 79 93 52 46 126 142 146 152 166 166 162 157 154 155 149 146 131 126 120 117 116 109 96 83 72 64 56 50 47 47 50 55 63 140 138 159 155
148 142 103 90 99 172 235 184 212 269 256 328 86 64 62 62 129 137 146 149 163 166 161 157 153 150 151 136 132 128 122 117 112 101 88 76 67 62 57 53 51 54 62 72 73 84 114 134 123
144 122 72 89 208 257 231 212 118 199 158 71 113 74 66 84 130 134 141 149 163 167 161 156 153 155 148 136 139 133 123 123 113 97 83 71 62 54 50 53 55 56 68 82 86 88 98 107 108
116 107 66 62 265 271 304 165 197 164 75 74 25 99 106 118 136 143 144 154 167 168 163 160 157 154 148 144 140 132 133 127 112 94 81 71 65 61 62 69 68 69 76 75 79 83 91 99 107
90 80 56 342 268 273 304 193 174 154 79 78 102 98 141 161 146 148 155 158 170 171 164 162 156 156 153 151 143 140 134 119 101 93 87 77 73 70 74 77 73 75 73 65 68 82 96 107 109
116 80 176 231 266 306 204 195 318 47 86 57 135 113 153 156 155 143 157 163 168 172 168 161 157 159 156 156 152 144 135 113 108 105 90 79 74 76 82 83 79 76 67 48 54 74 98 100 102
107 90 91 247 298 40 140 135 62 61 112 130 143 175 177 163 160 150 158 162 170 173 172 166 162 165 167 164 156 144 124 126 118 102 93 76 73 76 85 87 84 72 52 54 61 72 103 110 104
120 65 243 239 215 112 170 141 150 82 169 135 158 189 168 161 159 159 157 160 168 175 176 174 174 168 168 167 159 150 150 136 126 113 102 81 72 70 76 82 79 71 43 48 74 82 107 122 113
100 106 212 212 216 191 179 169 136 77 204 230 152 156 170 169 170 166 165 167 168 171 174 178 182 172 176 170 165 160 160 144 135 116 108 89 73 68 66 56 67 46 33 28 73 92 111 100 79
157 187 203 249 241 192 172 120 133 154 257 229 180 165 176 178 179 177 170 178 161 166 171 174 183 187 181 174 173 174 177 168 153 121 101 62 55 42 35 4 16 41 34 30 65 88 85 83 70
19 254 235 145 142 129 124 143 159 187 255 230 213 189 188 184 185 187 188 181 182 183 175 180 179 186 181 183 177 187 196 187 185 153 62 25 27 360 353 346 353 138 55 30 93 91 65 39 67
157 277 326 106 106 136 146 147 157 197 253 217 203 201 196 194 193 202 199 200 196 195 192 187 184 177 177 185 188 192 196 190 208 175 353 9 353 342 336 334 323 195 153 78 134 107 76 47 52
280 284 283 80 160 149 114 125 165 209 206 191 194 207 198 203 206 207 215 212 212 210 204 197 196 180 183 190 199 199 204 212 220 257 316 334 338 331 324 325 308 205 165 185 199 200 125 66 69
309 326 127 40 132 130 120 76 285 233 186 191 194 204 192 199 210 230 223 223 221 216 221 216 205 197 195 199 206 209 213 227 237 250 285 306 321 317 312 305 290 258 191 184 222 235 218 187 112
21 55 45 325 355 110 178 257 344 172 188 193 199 212 212 213 226 230 232 248 241 231 230 219 219 211 210 213 217 218 225 237 245 251 266 300 303 301 301 292 278 255 238 222 285 218 213 211 213
9 102 50 337 49 52 55 227 89 201 206 208 208 215 220 234 268 258 243 246 253 263 236 222 220 220 222 219 224 231 232 243 248 253 262 279 296 299 295 296 283 258 248 258 268 208 212 229 233
77 40 86 238 314 42 67 71 77 218 227 229 222 227 220 233 291 301 247 248 254 262 232 225 223 226 228 231 233 242 234 235 240 252 273 273 286 292 285 289 280 265 258 248 229 214 216 233 227
138 192 201 265 126 81 20 90 19 40 239 250 248 246 244 249 275 284 283 246 255 251 229 222 224 231 233 261 264 249 233 237 244 252 256 264 281 286 277 274 275 271 260 270 219 219 224 231 232
166 176 173 57 54 85 70 32 356 324 243 232 254 258 260 264 264 264 290 247 249 252 239 227 227 236 237 248 287 289 249 252 257 265 266 267 283 285 275 263 263 258 282 231 213 223 230 234 235
167 161 176 146 100 42 102 354 322 301 305 282 261 269 266 266 246 246 266 255 244 253 244 231 228 236 242 260 286 291 264 263 278 285 279 276 277 286 278 250 249 243 257 242 234 233 240 243 240
239 171 139 130 122 164 206 237 269 246 280 269 254 260 250 235 222 237 247 268 250 251 240 227 224 238 250 265 276 281 290 290 297 291 288 275 277 288 285 237 242 239 241 256 266 243 250 252 237
182 96 112 108 92 100 344 82 273 110 255 235 237 241 219 201 195 193 210 231 250 241 239 232 229 234 248 265 270 270 275 286 291 288 283 277 280 291 279 235 239 240 247 263 267 253 253 259 242
160 68 38 47 80 60 250 146 248 184 205 203 227 223 216 207 194 198 207 216 217 216 227 227 231 238 251 260 256 261 268 275 283 279 279 291 281 291 275 241 235 244 249 265 261 257 256 258 249
75 69 16 14 19 207 240 59 244 247 224 183 204 208 207 202 206 212 232 225 218 212 217 219 225 241 248 261 261 262 267 270 278 276 272 279 274 285 260 248 238 243 247 255 257 263 258 257 254
97 143 150 177 195 243 16 239 263 254 212 188 211 210 205 210 208 208 223 231 221 213 216 220 226 236 247 262 264 264 260 265 270 276 285 283 275 287 261 252 243 240 244 249 256 261 259 259 254
180 72 150 102 21 86 253 292 341 54 135 186 199 213 213 214 217 224 216 208 205 210 212 213 224 237 249 256 256 254 257 268 282 282 286 287 281 280 279 262 258 251 250 251 257 258 256 257 256
112 148 75 19 134 194 308 275 242 230 222 196 207 215 219 222 225 223 218 208 202 207 212 214 223 231 247 255 259 259 261 278 297 289 289 289 285 278 272 270 264 259 257 256 258 256 253 254 253
60 65 57 110 111 144 128 280 220 255 276 210 241 234 226 226 226 226 218 219 210 209 211 216 219 214 223 247 271 263 255 284 280 281 289 289 289 282 277 273 270 266 262 261 260 261 258 254 251
110 128 120 115 210 74 133 259 314 289 304 278 278 276 254 241 236 233 229 221 217 217 220 222 224 228 239 266 272 278 268 275 280 281 285 280 275 277 281 281 268 263 265 262 263 264 261 258 253